GEFSMA_con_cape1000_108.txt.gz
Probability
10 10 6 10 13 6 3 3 3 10 10 10 13 16 23 16 13 29 32 68 87 97 100 94 90 94 100 100 97 94 97 100 97 100 94 90 77 77 71 58 52 48 52
13 6 10 6 3 3 3 0 0 0 0 0 3 3 13 13 13 16 16 35 65 97 97 90 90 90 100 94 94 94 97 94 97 94 100 94 90 90 71 74 55 45 48
13 6 3 0 0 3 0 0 0 0 0 0 0 0 0 3 6 13 16 19 42 58 77 90 81 84 87 84 87 84 90 94 90 90 90 87 94 94 90 87 65 52 42
10 6 3 3 3 0 0 0 0 0 0 0 0 0 0 0 0 3 16 13 23 26 39 58 61 68 74 61 61 74 84 84 87 84 81 84 84 84 84 87 84 68 42
6 0 3 0 0 0 0 0 0 0 0 0 0 0 0 0 0 0 3 3 3 10 19 19 45 42 48 39 42 58 68 71 74 84 81 74 71 65 58 58 61 52 26
0 0 0 0 0 0 0 0 0 0 0 0 0 0 0 0 0 0 0 0 3 10 10 10 19 23 29 32 42 35 35 52 68 58 65 58 61 61 48 39 32 32 19
0 0 0 0 0 0 0 0 0 0 0 0 0 0 0 0 0 0 0 0 0 0 3 6 6 3 10 6 16 32 32 26 45 61 55 52 52 55 45 39 26 26 23
0 0 0 0 0 0 0 0 0 0 0 0 0 0 0 0 0 0 0 0 0 0 0 0 3 3 3 6 3 3 23 23 35 35 42 42 39 29 23 29 16 19 19
0 0 0 0 0 0 0 0 0 0 0 0 0 0 0 0 0 0 0 0 0 0 0 0 0 0 3 3 3 3 10 16 23 16 26 26 19 16 6 10 13 10 16
0 0 0 0 0 0 0 0 0 0 0 0 0 0 0 0 0 0 0 0 0 0 0 0 0 0 0 3 0 0 3 6 10 16 16 19 16 6 6 10 13 13 10
0 3 0 0 0 0 0 0 0 0 0 0 0 0 0 0 0 0 0 0 0 0 0 0 0 0 0 0 0 0 0 0 3 6 10 13 13 16 13 10 13 16 13
0 3 3 0 0 0 0 0 0 0 0 0 0 0 0 0 0 0 0 0 0 0 0 0 0 0 0 0 0 0 0 0 0 0 3 3 3 10 10 13 6 13 16
0 3 3 0 0 0 0 0 0 0 0 0 0 0 0 0 0 0 0 0 0 0 0 0 0 0 0 0 0 0 0 0 0 0 0 0 0 0 0 0 3 3 6
3 0 3 0 0 0 0 0 0 0 0 0 0 0 0 0 0 0 0 0 0 0 0 0 0 0 0 0 0 0 0 0 0 0 0 0 0 0 0 0 0 0 0
3 3 3 0 0 0 0 0 0 0 0 0 0 0 0 0 0 0 0 0 0 0 0 0 0 0 0 0 0 0 0 0 0 0 0 0 0 0 0 0 0 0 0
3 0 3 0 0 0 0 0 0 0 0 0 0 0 0 0 0 0 0 0 0 0 0 0 0 0 0 0 0 0 0 0 0 0 0 0 0 0 0 0 0 0 0
0 3 3 0 0 0 0 0 0 0 0 0 0 0 0 0 0 0 0 0 0 0 0 0 0 0 0 0 0 0 0 0 0 0 0 0 0 0 0 0 0 0 0
0 0 0 0 0 0 0 0 0 0 0 0 0 0 0 0 0 0 0 0 0 0 0 0 0 0 0 0 0 0 0 0 0 0 0 0 0 0 0 0 0 0 0
0 0 0 0 0 0 0 0 0 0 0 0 0 0 0 0 0 0 0 0 0 0 0 0 0 0 0 0 0 0 0 0 0 0 0 0 0 0 0 0 0 0 0
0 0 0 0 0 0 0 0 0 0 0 0 0 0 0 0 0 0 0 0 0 0 0 0 0 0 0 0 0 0 0 0 0 0 0 0 0 0 0 0 0 0 0
3 0 0 0 0 0 0 0 0 0 0 0 0 0 0 0 0 0 0 0 0 0 0 0 0 0 0 0 0 0 0 0 0 0 0 0 0 0 0 0 0 0 0
3 0 0 0 0 0 0 0 0 0 0 0 0 0 0 0 0 0 0 0 0 0 0 0 0 0 0 0 0 0 0 0 0 0 0 0 0 0 0 0 0 0 0
0 0 0 0 0 0 0 0 0 0 0 0 0 0 0 0 0 0 0 0 0 0 0 0 0 0 0 0 0 0 0 0 0 0 0 0 0 0 0 0 0 0 0
0 0 0 0 0 0 0 0 0 0 0 0 0 0 0 0 0 0 0 0 0 0 0 0 0 0 0 0 0 0 0 0 0 0 0 0 0 0 0 0 0 0 0
0 0 0 0 0 0 0 0 0 0 0 0 0 0 0 0 0 0 0 0 0 0 0 0 0 0 0 0 0 0 0 0 0 0 0 0 0 0 0 0 0 0 0
0 0 0 0 0 0 0 0 0 0 0 0 0 0 0 0 0 0 0 0 0 0 0 0 0 0 0 0 0 0 0 0 0 0 0 0 0 0 0 0 0 0 0

GEFSMA_con_cape1000_114.txt.gz
Probability
74 65 74 68 45 42 45 42 42 45 48 45 39 52 52 52 45 42 87 84 77 77 77 74 71 74 77 81 81 77 84 81 87 81 84 77 65 55 48 48 32 35 35
71 65 65 55 45 39 35 35 39 45 32 35 32 45 58 42 55 52 55 71 71 81 81 74 71 71 74 81 77 81 81 81 84 87 87 87 84 71 58 55 42 35 45
61 55 55 52 48 39 42 35 35 29 26 16 23 23 26 42 39 32 35 58 58 68 84 65 65 65 65 61 77 81 81 81 87 84 84 87 90 94 84 61 55 48 42
58 52 55 42 39 35 23 23 16 13 13 10 10 10 23 35 29 23 32 48 52 32 48 45 48 48 42 48 58 74 87 77 84 90 81 87 84 84 90 77 68 65 42
48 42 42 32 29 23 19 6 6 10 13 10 6 19 13 19 16 6 10 10 16 26 35 42 42 48 39 35 45 52 58 61 65 74 74 74 77 77 74 84 81 65 42
35 39 35 35 19 19 23 13 16 16 16 10 0 6 6 6 3 10 3 0 10 3 10 13 26 26 29 29 32 39 39 55 65 61 65 65 68 71 68 61 61 55 45
39 35 26 39 26 19 16 10 10 6 6 6 3 10 6 0 3 6 6 6 6 10 10 10 10 16 26 16 16 16 16 29 39 55 61 74 68 61 52 45 29 29 39
42 35 35 26 29 29 16 13 13 10 6 3 0 3 3 3 3 0 6 10 6 6 6 3 3 16 10 19 6 10 16 10 19 35 52 61 52 42 32 29 29 16 13
39 32 29 26 26 19 16 13 10 3 6 0 0 0 0 3 6 0 0 0 3 6 6 10 3 6 10 19 23 3 13 19 13 23 32 35 35 19 19 23 13 10 10
35 29 26 26 29 13 13 13 3 3 3 0 0 0 0 3 0 0 0 0 0 3 3 0 6 6 10 13 10 3 3 6 13 13 16 19 26 19 13 16 16 13 19
35 32 26 29 29 19 13 13 13 0 0 0 0 0 0 0 0 0 0 0 0 0 0 0 0 0 3 3 16 3 3 3 3 10 13 13 16 16 10 10 10 10 16
32 32 29 29 23 23 23 23 19 10 0 0 0 0 0 0 3 3 3 0 0 0 0 0 0 3 3 3 0 0 0 0 0 0 3 10 10 10 6 3 6 10 13
35 39 26 32 26 23 23 23 26 10 6 6 6 0 0 0 0 3 3 3 0 0 0 0 0 0 0 0 0 0 0 0 0 0 0 3 3 6 6 10 10 10 10
32 39 35 32 23 23 16 23 6 6 10 6 3 3 6 0 0 0 0 0 0 0 0 0 0 0 0 0 0 0 0 0 0 0 0 0 0 0 0 3 3 6 6
29 35 32 32 32 26 23 23 16 13 10 10 3 6 6 3 3 3 3 3 0 0 0 0 0 0 0 3 0 0 0 0 0 0 0 0 0 0 0 0 0 0 0
45 35 32 35 32 26 26 29 16 13 13 10 10 3 3 3 3 3 3 3 6 3 0 0 3 0 0 0 0 0 0 0 0 0 0 0 0 0 0 0 0 0 0
55 45 35 29 32 26 29 32 16 13 13 13 13 6 10 10 3 3 0 0 0 3 3 0 3 0 0 3 0 0 0 0 0 0 0 0 0 0 0 0 0 0 0
52 58 42 35 39 35 42 39 29 16 13 16 16 13 13 3 10 0 6 3 3 3 0 0 3 0 3 6 3 6 0 0 0 0 0 0 0 0 0 0 0 0 0
58 55 52 52 42 39 39 45 35 29 16 10 10 10 6 10 19 10 10 6 6 0 6 3 0 0 3 3 3 3 3 3 0 0 0 0 0 0 0 0 0 0 0
55 55 52 45 48 39 42 39 39 29 26 19 19 19 6 6 10 13 3 10 0 6 6 10 10 3 3 0 3 6 3 6 3 0 0 0 0 0 0 0 0 0 0
48 58 55 55 55 48 32 39 42 39 35 29 23 16 13 6 3 3 0 10 6 10 10 10 6 6 3 10 6 3 0 3 0 0 3 0 0 3 0 0 0 0 0
61 61 61 58 55 16 3 0 10 35 35 29 29 26 13 6 0 0 0 0 0 0 3 6 6 10 10 13 13 3 10 6 3 3 3 0 0 3 3 3 0 0 0
68 65 58 45 42 26 3 0 0 6 26 26 32 32 13 0 0 3 0 0 0 0 0 0 0 0 6 6 6 10 10 6 10 6 13 6 0 3 0 0 0 0 0
58 55 52 45 52 29 3 0 0 0 6 13 16 16 19 16 0 0 3 3 3 3 0 0 0 0 3 3 6 3 3 3 10 3 6 0 0 0 0 3 0 0 0
58 52 48 48 45 32 3 0 0 3 3 6 10 10 10 6 0 0 0 0 0 3 0 0 0 0 0 0 0 0 0 3 0 0 3 0 0 0 0 0 0 0 0
48 48 39 39 39 23 3 0 0 0 0 3 6 3 0 0 0 0 0 3 3 3 3 3 0 0 0 0 0 0 0 0 3 0 0 6 0 0 0 0 0 0 0

GEFSMA_con_cape1000_120.txt.gz
Probability
97 84 87 84 77 65 65 68 61 61 58 61 65 61 58 68 81 58 81 94 97 97 84 81 77 71 74 71 74 77 81 81 74 84 74 71 58 52 52 42 35 32 39
84 81 77 81 77 71 61 68 61 61 68 77 68 71 68 65 81 81 74 100 97 94 90 81 77 65 65 68 71 77 74 81 84 84 84 84 71 55 48 45 45 35 32
81 81 84 77 71 58 52 55 48 52 61 61 68 68 65 61 65 71 74 71 74 90 90 87 84 81 61 61 65 68 74 84 84 87 84 84 87 77 58 52 39 45 42
71 77 77 71 58 55 52 58 58 55 58 61 65 58 58 61 48 58 65 77 58 55 81 87 81 71 68 58 55 65 74 81 84 87 81 74 74 87 90 71 65 55 45
71 71 77 68 65 52 45 35 61 58 52 52 52 55 52 58 48 39 58 55 61 55 32 71 74 61 58 48 61 52 71 68 81 77 77 68 68 77 87 84 81 74 48
61 65 68 52 45 45 48 55 45 48 48 45 6 10 29 39 39 39 32 35 45 35 29 23 32 39 55 61 61 58 48 55 74 74 68 71 71 71 68 71 58 65 55
61 61 48 48 45 48 45 29 29 19 19 23 19 23 23 23 26 35 26 23 10 19 29 35 23 23 19 58 55 61 52 48 45 61 68 65 71 71 58 65 55 55 48
58 39 52 48 42 55 32 26 32 39 19 23 13 10 6 6 19 0 23 13 6 16 23 16 23 23 13 6 3 35 45 39 35 42 55 68 58 61 52 52 48 23 16
55 52 48 42 42 35 29 29 26 16 16 16 16 19 13 3 3 13 13 6 13 10 6 16 16 23 13 16 10 10 23 19 26 23 35 48 48 42 42 35 29 19 6
52 42 42 45 45 35 35 23 23 26 29 32 23 16 16 29 10 13 10 13 16 3 10 3 3 16 19 19 13 0 13 10 19 16 29 35 32 29 26 23 19 23 13
45 39 39 42 39 35 42 35 42 29 35 35 32 13 13 19 10 10 0 0 10 3 3 6 6 16 16 16 10 3 0 0 10 13 26 23 29 29 23 19 13 13 16
45 39 39 42 42 39 35 29 29 26 29 39 35 39 13 10 10 10 6 3 3 3 3 13 10 19 16 10 6 0 0 0 0 0 6 13 13 19 16 16 13 10 13
52 55 42 48 45 42 39 26 32 26 29 29 19 32 29 13 6 10 6 0 3 0 6 13 6 16 0 10 0 0 3 0 0 0 0 0 3 6 10 10 13 13 10
42 52 52 48 42 35 29 32 29 29 29 29 16 26 29 16 10 10 10 6 3 0 10 6 3 6 0 0 0 0 0 0 0 0 0 0 0 0 3 0 0 0 0
52 52 48 45 45 42 35 42 29 35 32 26 23 19 19 19 10 10 10 13 6 3 0 10 3 3 10 6 0 0 0 0 0 0 0 0 0 0 0 0 0 0 0
61 61 61 55 48 45 48 42 29 32 32 35 39 29 23 13 29 6 10 3 3 3 3 3 13 6 10 0 0 0 3 0 0 0 0 0 0 0 0 0 0 0 0
68 55 58 58 58 52 45 52 42 45 32 29 29 26 26 23 26 29 19 13 13 10 0 10 16 32 23 16 0 0 6 3 0 0 0 0 0 0 0 0 0 0 0
74 71 58 61 55 52 48 55 52 42 39 39 32 29 29 16 29 23 16 19 23 23 13 6 13 26 26 23 19 19 0 0 0 0 0 0 0 0 0 0 0 0 0
65 71 68 71 65 58 61 58 52 52 52 42 39 35 32 23 29 35 29 10 19 6 13 6 10 23 23 16 26 13 0 3 0 0 0 0 0 0 0 0 0 0 0
65 58 68 65 61 61 52 55 52 52 52 48 45 45 35 26 23 29 19 26 16 13 13 6 3 10 10 13 13 6 0 3 0 0 0 0 0 0 0 0 0 0 0
55 61 65 68 68 48 35 42 52 42 48 45 45 39 29 19 13 13 6 13 10 10 6 3 0 0 0 0 10 3 0 3 3 0 0 0 0 0 0 0 0 0 0
68 68 61 55 48 32 10 3 29 39 42 42 42 39 39 16 3 0 0 0 0 3 6 6 0 0 0 0 3 0 0 0 0 0 0 0 0 0 0 0 0 0 0
71 65 55 52 52 35 6 0 0 26 39 39 35 42 16 10 3 3 0 0 0 0 0 0 0 0 0 3 3 3 0 0 0 3 3 0 0 3 0 0 0 0 0
68 58 55 58 52 35 13 0 0 6 26 32 29 26 23 23 3 3 10 0 0 0 0 0 0 0 0 0 3 6 3 3 3 3 0 0 0 0 0 0 0 0 0
61 55 52 52 48 35 6 0 0 6 23 23 26 16 19 19 3 0 0 3 0 0 0 0 0 0 0 0 0 0 3 0 0 0 0 0 0 0 0 3 0 0 0
55 55 45 39 35 35 10 0 0 6 16 16 19 10 3 3 0 0 0 0 0 0 0 0 0 0 0 0 0 0 0 0 0 0 0 0 0 0 0 0 0 0 0

GEFSMA_con_cape1000_126.txt.gz
Probability
26 26 29 16 13 13 16 6 3 0 6 6 6 6 10 6 10 23 55 94 97 100 97 90 90 90 90 90 84 90 94 87 94 90 90 74 68 65 55 52 39 42 26
19 10 13 6 13 10 6 6 3 3 3 0 3 3 0 6 10 19 35 81 97 100 97 97 81 84 87 84 87 81 90 90 90 97 84 84 68 65 68 61 42 42 35
13 10 10 13 6 6 3 3 3 3 0 0 3 3 3 10 6 16 26 48 61 97 100 94 87 87 81 77 81 87 90 94 87 90 87 84 84 77 68 58 61 52 42
13 10 3 6 0 3 3 3 6 3 3 0 0 0 0 0 3 6 13 23 35 55 84 94 94 90 77 77 74 74 87 90 90 90 90 87 77 77 61 55 52 52 48
26 13 6 3 3 3 0 0 0 0 0 0 0 0 0 0 0 6 10 16 10 10 23 61 94 81 74 65 71 77 77 84 87 87 77 81 77 77 74 74 55 52 45
19 3 6 0 6 0 0 0 0 0 0 0 0 0 0 0 0 0 0 0 0 0 3 19 35 55 71 65 65 65 68 81 84 84 74 68 65 71 65 68 58 55 48
16 3 6 3 0 0 0 0 0 0 0 0 0 0 0 0 0 0 0 0 0 0 0 0 3 13 13 55 58 61 58 65 74 81 74 71 71 77 58 55 52 45 48
13 13 3 3 0 0 0 0 0 0 0 0 0 0 0 0 0 0 0 0 0 0 0 0 3 0 0 0 13 45 61 45 58 55 68 77 68 65 58 55 39 29 19
13 10 0 0 0 0 0 0 0 0 0 0 0 0 0 0 0 0 0 0 0 0 0 0 0 0 0 0 0 10 39 42 45 32 39 52 48 42 39 42 39 32 13
10 3 0 0 0 0 0 0 0 0 0 0 0 0 0 0 0 0 0 0 0 0 0 0 0 0 0 0 0 0 13 16 29 35 35 45 45 35 26 35 32 32 19
6 3 0 0 0 0 0 0 0 0 0 0 0 0 0 0 0 0 0 0 0 0 0 0 0 0 0 0 0 0 0 3 6 19 29 39 35 35 29 23 23 19 19
6 6 3 3 0 0 0 0 0 0 0 0 0 0 0 0 0 0 0 0 0 0 0 0 0 0 0 0 0 0 0 0 0 0 3 6 10 19 29 19 19 16 16
6 6 3 3 3 0 0 0 0 0 0 0 0 0 0 0 0 0 0 0 0 0 0 0 0 0 0 0 0 0 0 0 0 0 0 0 0 0 13 16 16 16 13
3 3 0 3 3 3 3 0 0 0 0 0 0 0 0 0 0 0 0 0 0 0 0 0 0 0 0 0 0 0 0 0 0 0 0 0 0 0 0 0 3 3 3
0 0 0 0 0 3 3 3 3 0 0 0 0 0 0 0 0 0 0 0 0 0 0 0 0 0 0 0 0 0 0 0 0 0 0 0 0 0 0 0 0 0 0
3 3 0 0 0 0 3 3 3 0 0 0 0 0 0 0 0 0 0 0 0 0 0 0 0 0 0 0 0 0 0 0 0 0 0 0 0 0 0 0 0 0 0
3 3 3 0 0 3 3 3 3 3 0 0 0 0 0 0 0 0 0 0 0 0 0 0 0 0 0 0 0 0 0 0 0 0 0 0 0 0 0 0 0 0 0
3 3 6 0 0 0 0 0 3 3 0 0 0 0 0 0 0 0 0 0 0 0 0 0 0 0 0 0 0 0 0 0 0 0 0 0 0 0 0 0 0 0 0
6 3 0 3 0 0 0 0 3 3 0 0 0 0 0 0 0 0 0 0 0 0 0 0 0 0 0 0 0 0 0 0 0 0 0 0 0 0 0 0 0 0 0
10 6 3 3 0 0 0 0 0 0 0 0 0 0 0 0 0 0 0 0 0 0 0 0 0 0 0 0 0 0 0 0 0 0 0 0 0 0 0 0 0 0 0
19 13 13 6 3 3 0 0 0 0 0 0 0 0 0 0 0 0 0 0 0 0 0 0 0 0 0 0 0 0 0 0 0 0 0 0 0 0 0 0 0 0 0
13 13 13 10 10 10 6 0 0 3 0 0 0 0 0 0 0 0 0 0 0 0 0 0 0 0 0 0 0 0 0 0 0 0 0 0 0 0 0 0 0 0 0
13 13 13 6 6 10 0 0 0 0 0 0 0 0 0 0 0 0 0 0 0 0 0 0 0 0 0 0 0 0 0 0 0 0 0 0 0 0 0 0 0 0 0
13 10 10 10 6 6 0 0 0 0 0 0 0 3 3 0 0 0 0 0 0 0 0 0 0 0 0 0 0 0 0 0 0 0 0 0 0 0 0 0 0 0 0
13 16 13 10 6 10 0 0 0 0 0 0 0 0 3 3 0 0 0 0 0 0 0 0 0 0 0 0 0 0 0 0 0 0 0 0 0 0 0 0 0 0 0
6 6 6 6 3 3 3 0 0 0 0 0 0 0 0 0 0 0 0 0 0 0 0 0 0 0 0 0 0 0 0 0 0 0 0 0 0 0 0 0 0 0 0

GEFSMA_con_cape1000_132.txt.gz
Probability
19 16 16 16 16 6 6 3 0 3 3 3 3 6 13 19 29 45 65 81 94 90 87 81 74 74 84 87 77 81 84 77 87 87 84 68 52 58 52 45 39 26 23
6 13 13 6 3 0 3 3 0 0 3 3 3 10 13 16 26 29 52 68 87 94 87 84 68 74 77 71 65 68 81 81 94 90 84 87 71 61 55 45 35 32 29
6 6 6 0 0 0 0 3 0 3 0 0 3 3 10 16 16 26 45 52 74 81 87 94 84 74 71 71 65 58 65 87 90 94 87 77 77 81 68 58 42 39 35
3 3 0 0 0 0 0 3 0 0 0 0 0 0 3 10 16 23 39 52 55 58 74 90 84 77 68 65 65 68 81 84 84 81 74 84 81 77 71 68 55 48 35
3 3 0 0 0 0 0 3 0 0 0 0 0 0 0 3 10 19 29 29 42 48 55 58 71 74 58 52 58 65 74 87 90 77 65 74 74 77 58 61 55 42 32
3 0 0 0 0 0 0 0 0 0 0 0 0 0 0 0 0 3 6 16 16 19 23 32 58 58 58 61 61 58 58 65 81 84 74 68 65 68 58 42 39 39 39
0 0 0 0 0 0 0 0 0 0 0 0 0 0 0 0 0 0 0 0 3 3 10 13 10 16 23 35 52 65 42 39 58 68 74 68 61 68 58 45 35 39 39
0 0 0 0 0 0 0 0 0 0 0 0 0 0 0 0 0 0 0 0 0 0 3 3 6 6 6 19 13 29 55 48 35 55 61 68 65 65 58 52 42 32 32
0 0 0 0 0 0 0 0 0 0 0 0 0 0 0 0 0 0 0 0 0 0 0 3 3 3 3 6 3 3 23 48 55 35 52 48 42 32 32 32 32 26 16
3 3 0 0 0 0 0 0 0 0 0 0 0 0 0 0 0 0 0 0 0 0 0 0 0 3 3 3 0 0 3 6 29 32 42 39 42 32 23 29 35 35 32
3 3 3 0 0 0 0 0 0 0 0 0 0 0 0 0 0 0 0 0 0 0 0 0 0 0 0 0 0 0 0 0 0 13 29 39 39 35 32 29 19 16 29
0 3 3 0 0 0 0 0 0 0 0 0 0 0 0 0 0 0 0 0 0 0 0 0 0 0 0 0 0 0 0 0 0 0 0 6 23 23 32 23 16 13 16
0 0 0 0 0 0 0 0 0 0 0 0 0 0 0 0 0 0 0 0 0 0 0 0 0 0 0 0 0 0 0 0 0 0 0 0 3 3 13 13 19 16 16
0 0 0 0 0 0 0 0 0 0 0 0 0 0 0 0 0 0 0 0 0 0 0 0 0 0 0 0 0 0 0 0 0 0 0 0 0 0 0 0 0 0 3
0 0 0 0 0 0 0 0 0 0 0 0 0 0 0 0 0 0 0 0 0 0 0 0 0 0 0 0 0 0 0 0 0 0 0 0 0 0 0 0 0 0 0
0 0 0 0 0 0 0 0 0 0 0 0 0 0 0 0 0 0 0 0 0 0 0 0 0 0 0 0 0 0 0 0 0 0 0 0 0 0 0 0 0 0 0
0 0 0 0 0 0 0 0 0 0 0 0 0 0 0 0 0 0 0 0 0 0 0 0 0 0 0 0 0 0 0 0 0 0 0 0 0 0 0 0 0 0 0
0 0 0 0 0 0 0 0 0 0 0 0 0 0 0 0 0 0 0 0 0 0 0 0 0 0 0 0 0 0 0 0 0 0 0 0 0 0 0 0 0 0 0
3 3 0 0 0 0 0 0 0 0 0 0 0 0 0 0 0 0 0 0 0 0 0 0 0 0 0 0 0 0 0 0 0 0 0 0 0 0 0 0 0 0 0
3 3 3 3 0 0 0 0 0 0 0 0 0 0 0 0 0 0 0 0 0 0 0 0 0 0 0 0 0 0 0 0 0 0 0 0 0 0 0 0 0 0 0
3 3 3 3 3 0 0 0 0 0 0 0 0 0 0 0 0 0 0 0 0 0 0 0 0 0 0 0 0 0 0 0 0 0 0 0 0 0 0 0 0 0 0
3 3 3 0 0 0 0 0 0 0 0 0 0 0 0 0 0 0 0 0 0 0 0 0 0 0 0 0 0 0 0 0 0 0 0 0 0 0 0 0 0 0 0
3 3 3 3 3 0 0 0 0 0 0 0 0 0 0 0 0 0 0 0 0 0 0 0 0 0 0 0 0 0 0 0 0 0 0 0 0 0 0 0 0 0 0
3 3 3 3 3 0 0 0 0 0 0 0 0 0 0 0 0 0 0 0 0 0 0 0 0 0 0 0 0 0 0 0 0 0 0 0 0 0 0 0 0 0 0
3 3 3 3 3 3 0 0 0 0 0 0 0 0 0 0 0 0 0 0 0 0 0 0 0 0 0 0 0 0 0 0 0 0 0 0 0 0 0 0 0 0 0
3 3 0 0 0 0 0 0 0 0 0 0 0 0 0 0 0 0 0 0 0 0 0 0 0 0 0 0 0 0 0 0 0 0 0 0 0 0 0 0 0 0 0

GEFSMA_con_cape1000_138.txt.gz
Probability
77 74 81 77 52 52 52 48 48 55 52 52 35 39 45 42 42 32 87 81 87 87 74 65 71 74 77 77 74 77 77 68 71 74 68 58 52 48 42 35 23 23 16
84 81 84 74 48 45 39 52 48 61 55 55 42 45 42 39 39 39 42 71 84 90 84 74 65 68 65 71 68 68 65 71 71 68 61 58 52 39 26 23 23 19 16
87 74 71 61 45 45 45 42 48 45 52 39 48 42 39 29 29 39 35 55 68 77 77 81 77 74 58 58 61 61 65 81 77 68 61 65 55 48 45 39 35 29 26
84 90 65 55 58 52 45 52 35 39 29 29 42 26 26 55 42 42 26 39 45 35 58 68 68 65 65 58 48 52 61 74 71 68 74 68 65 52 58 52 42 32 23
81 71 61 68 65 55 45 32 39 23 32 19 19 26 23 23 39 26 26 23 23 23 26 68 65 68 55 58 52 52 61 61 68 65 61 55 58 58 58 52 48 45 35
81 68 65 65 65 48 48 45 48 42 32 32 0 6 10 10 19 29 6 13 16 13 16 23 55 52 55 55 58 52 52 58 71 71 61 58 55 61 65 52 45 48 39
68 65 55 71 58 48 48 39 29 35 35 29 13 19 6 3 13 19 13 6 3 10 23 19 19 29 52 42 48 55 42 42 61 65 71 68 65 71 68 48 42 35 29
65 52 65 58 55 55 52 48 39 35 19 26 16 16 16 16 10 0 13 13 3 6 13 16 23 26 23 23 16 39 45 42 45 55 65 68 65 71 61 48 45 29 23
55 55 61 55 61 39 45 45 42 39 23 13 10 16 10 19 16 6 0 6 13 6 6 13 13 10 10 19 29 19 42 45 45 35 52 61 61 61 45 48 39 35 29
55 55 61 61 48 35 48 35 35 35 35 19 16 16 6 10 3 6 6 3 3 10 10 0 3 10 6 13 23 0 23 35 39 35 42 48 52 55 39 39 35 35 29
58 61 61 58 52 35 39 39 35 35 29 19 16 10 6 3 3 6 10 3 0 0 6 10 10 3 6 3 16 3 0 3 3 19 32 39 45 42 39 29 23 26 26
65 58 58 61 58 45 45 48 42 39 35 23 29 16 13 6 6 3 3 6 0 0 3 10 6 0 3 3 6 0 0 0 0 0 3 10 23 29 35 26 23 23 23
61 65 52 65 55 55 48 45 45 32 32 39 32 23 13 10 3 0 0 0 0 0 0 0 3 0 0 6 10 3 3 0 0 0 0 0 0 6 16 23 19 13 13
52 55 58 55 52 45 35 45 39 42 39 39 23 32 26 10 0 3 0 6 0 0 0 3 0 0 0 0 0 0 6 0 0 0 0 0 0 0 0 3 3 3 10
45 45 58 61 45 42 35 42 42 39 29 32 32 39 26 19 6 0 3 3 3 3 3 3 0 3 3 13 0 6 13 0 0 0 0 0 0 0 0 0 0 0 0
48 48 55 48 42 39 35 42 39 39 35 29 35 29 39 19 16 10 10 10 10 6 6 0 10 3 10 0 3 6 6 0 0 0 0 0 0 0 0 0 0 0 0
55 48 58 55 48 42 42 39 32 26 32 32 26 19 29 26 19 16 10 10 6 10 6 3 10 3 6 13 3 3 3 10 3 0 0 0 0 0 0 0 0 0 0
61 52 55 52 45 35 39 35 29 26 26 26 23 19 13 23 29 19 16 6 10 3 6 13 10 6 13 13 13 16 3 0 3 0 0 0 0 0 0 0 0 0 0
48 52 55 48 45 42 35 32 26 19 19 19 23 19 16 13 23 23 19 6 10 3 13 16 16 16 6 6 3 3 3 10 0 0 0 0 0 0 0 0 0 0 0
52 55 55 45 45 39 35 29 26 23 23 23 23 19 16 16 23 23 19 23 16 19 23 23 10 10 13 3 10 3 0 10 3 0 0 0 0 0 0 0 0 0 0
42 48 45 39 42 35 29 32 35 19 29 19 19 23 19 6 0 3 0 13 16 13 19 16 16 10 6 13 3 3 3 6 10 3 6 6 6 6 0 0 0 0 0
39 42 35 29 26 13 0 0 19 35 26 23 23 23 13 3 0 0 0 0 0 0 6 13 13 13 10 6 13 6 13 13 13 10 13 10 6 10 6 3 0 0 0
48 48 35 32 26 19 0 0 0 13 23 19 23 23 6 0 0 3 0 0 0 0 0 0 0 3 6 13 6 10 13 13 10 13 10 6 3 6 6 0 0 0 0
45 42 39 29 23 16 0 0 0 3 13 16 16 13 19 16 6 6 6 3 3 3 0 0 0 0 0 3 3 6 13 13 13 10 0 3 6 3 0 3 0 0 0
39 35 35 29 23 16 0 0 0 3 6 10 10 3 6 6 0 0 0 3 3 3 0 0 0 0 0 0 0 0 0 0 0 0 0 3 0 3 6 6 3 0 0
29 26 19 19 16 10 0 0 0 3 10 10 6 6 0 0 0 0 0 3 3 3 3 3 0 0 0 0 0 0 0 0 0 0 0 0 0 0 0 0 3 0 0

GEFSMA_con_cape1000_144.txt.gz
Probability
97 94 94 97 94 90 84 90 81 84 81 65 52 52 65 55 65 39 52 94 94 84 77 68 58 74 77 74 74 74 71 71 71 77 71 55 52 48 42 39 35 32 16
100 97 97 97 97 84 90 87 87 84 84 87 74 74 68 55 61 61 48 90 94 94 81 71 61 48 55 58 65 71 71 71 68 68 68 68 48 45 35 39 35 26 23
97 100 97 94 97 87 84 87 81 84 87 74 87 81 68 74 71 61 52 55 71 84 77 81 77 68 58 55 55 61 65 77 77 71 68 61 58 45 48 35 29 32 26
90 97 94 87 90 81 90 90 81 81 81 77 87 81 71 77 58 74 68 61 55 32 77 81 81 74 74 58 58 58 65 81 74 68 65 61 52 45 45 42 29 29 29
90 90 97 94 81 77 87 68 84 77 84 81 71 74 71 71 65 52 52 58 58 55 48 68 84 74 71 61 58 55 68 74 77 71 58 58 52 48 48 45 45 35 35
94 97 97 81 77 77 84 87 77 87 87 90 32 48 71 61 68 65 45 52 61 55 48 19 58 52 68 71 71 61 71 65 61 71 65 65 61 61 58 48 48 39 39
94 97 94 87 74 77 74 74 77 74 81 84 65 58 55 45 55 74 55 45 39 45 58 45 35 32 35 61 68 74 65 68 68 71 71 74 74 74 68 61 42 35 26
84 65 81 77 71 81 71 77 74 74 71 68 74 48 32 42 58 23 65 55 42 58 52 61 71 74 42 29 26 74 71 71 58 61 74 74 74 74 68 58 39 29 26
77 74 77 77 74 81 74 71 81 68 55 65 55 42 23 10 23 26 32 19 48 42 35 45 52 65 58 58 26 26 61 61 65 61 65 71 68 68 58 58 52 42 35
77 74 74 74 77 77 87 68 61 77 68 61 55 55 42 52 26 16 26 32 35 48 39 19 16 39 52 52 52 16 32 42 61 55 61 68 71 58 52 55 42 45 39
68 68 77 74 81 87 84 77 65 77 77 71 68 55 39 52 29 26 13 19 29 35 42 35 39 29 32 48 45 19 16 26 35 45 52 52 55 61 52 45 39 29 35
74 65 74 77 81 81 74 74 65 52 74 68 77 74 48 45 23 32 19 23 23 39 32 52 42 39 29 32 19 10 6 3 3 6 19 26 39 39 48 45 35 29 32
68 71 61 71 84 81 68 71 77 81 74 58 68 77 68 45 39 35 16 16 13 23 39 39 35 35 6 23 19 3 6 0 0 0 0 3 10 13 16 19 26 35 35
52 81 84 77 71 74 65 77 71 68 68 61 52 65 74 58 32 32 35 19 10 10 26 16 16 19 13 16 10 0 0 0 0 0 0 0 0 0 3 6 6 6 10
61 65 68 71 68 65 65 68 71 61 65 58 55 58 58 52 45 32 42 29 13 6 0 26 19 16 32 13 0 0 10 3 0 0 0 0 0 0 0 0 0 0 0
61 68 65 68 65 61 65 61 65 58 55 55 68 65 61 35 35 45 39 26 23 10 13 13 13 13 16 0 0 0 16 3 0 0 0 0 0 0 0 0 0 0 0
58 58 58 65 58 58 55 61 45 45 42 48 48 42 45 39 26 32 32 26 26 26 16 16 23 23 32 19 6 23 16 3 3 0 0 0 0 0 0 0 0 0 0
61 58 58 58 52 45 52 48 48 39 39 32 32 29 35 23 26 26 26 23 19 23 23 10 23 26 32 32 26 29 6 0 3 0 0 0 0 0 0 0 0 0 0
52 45 52 55 52 55 45 48 52 39 35 32 32 35 23 19 19 26 32 23 23 13 29 16 19 26 26 19 32 16 10 10 0 0 0 0 0 0 0 0 0 0 0
61 55 58 58 55 45 45 52 45 39 32 35 35 23 19 19 16 19 19 26 26 26 26 19 16 16 13 10 23 19 13 23 3 0 0 0 0 0 0 0 0 0 0
55 55 48 48 45 42 39 35 35 35 29 29 23 23 26 16 13 13 6 13 16 19 16 13 16 10 13 10 10 10 0 3 13 3 3 0 0 0 0 0 0 0 0
52 45 42 39 39 26 6 3 19 23 23 26 29 26 16 16 3 3 0 0 0 3 0 6 13 10 13 10 10 3 6 3 3 6 6 0 0 6 6 6 0 0 0
55 48 45 39 35 29 6 0 0 13 29 29 26 26 6 3 0 3 0 0 0 0 0 3 0 3 3 3 10 6 3 10 6 6 6 3 6 3 3 0 0 0 0
42 42 32 35 32 23 3 0 0 3 16 19 16 19 16 6 0 0 0 0 0 0 0 0 0 3 0 3 3 3 3 0 0 0 0 0 0 0 0 0 0 0 0
42 39 35 32 29 19 3 0 0 3 10 13 13 13 16 6 0 0 0 0 0 0 0 0 0 0 0 0 0 0 0 0 0 0 0 0 0 0 0 0 0 0 0
35 32 32 29 23 19 6 0 0 3 10 10 10 6 0 0 0 0 0 0 0 0 0 0 0 0 0 0 0 0 0 0 0 0 0 0 0 0 0 0 0 0 0

GEFSMA_con_cape1000_150.txt.gz
Probability
19 19 19 13 16 16 13 10 10 6 6 0 3 3 3 6 10 13 52 90 100 97 94 87 84 84 90 90 94 90 81 77 81 74 74 65 52 48 52 42 26 23 23
13 19 23 19 19 13 10 6 6 3 3 3 3 6 3 10 10 13 26 77 97 100 97 94 81 74 71 77 74 77 74 71 84 84 74 71 58 55 58 48 32 23 26
13 13 13 16 13 13 6 10 6 3 6 3 3 6 3 10 10 10 13 26 58 87 97 100 90 84 71 61 61 65 71 77 77 74 71 71 61 58 58 52 48 29 23
10 6 6 3 6 3 3 3 3 6 3 3 0 0 0 3 6 10 10 6 19 32 68 87 87 87 77 61 61 61 68 81 90 81 77 68 68 61 65 58 45 42 26
13 6 6 3 0 3 3 3 3 3 0 0 0 0 0 0 0 10 6 3 6 10 13 58 94 94 87 68 65 65 74 77 74 74 61 61 55 61 65 58 48 35 23
10 10 6 0 0 0 0 0 0 0 0 0 0 0 0 0 0 0 10 6 3 3 6 13 42 68 81 84 84 74 77 77 81 71 68 58 52 65 55 55 45 29 26
13 10 13 3 0 0 0 0 0 0 0 0 0 0 0 0 0 0 0 0 3 3 3 0 6 16 16 68 77 90 87 87 81 81 81 68 65 74 71 52 39 26 23
3 6 3 3 3 0 0 3 0 0 0 0 0 0 0 0 0 0 0 0 0 0 3 3 3 3 3 10 23 68 87 81 77 77 71 71 74 74 68 58 42 26 19
10 6 6 3 3 0 0 3 0 0 0 0 0 0 0 0 0 0 0 0 0 0 3 6 3 0 0 0 0 16 74 81 74 71 68 71 68 68 58 55 48 35 23
6 6 3 3 3 3 3 0 0 0 0 0 0 0 0 0 0 0 0 0 0 0 0 3 3 3 0 0 0 3 19 52 65 68 65 71 71 58 48 52 42 48 48
6 3 6 3 3 3 3 3 0 0 0 0 0 0 0 0 0 0 0 0 0 0 0 0 0 0 0 0 0 0 6 10 29 58 68 71 71 71 61 45 39 42 42
6 6 6 3 3 3 3 3 0 0 0 0 0 0 0 0 0 0 0 0 0 0 0 0 0 0 0 0 3 3 6 3 3 3 32 35 52 58 61 52 45 35 39
10 6 6 3 3 3 3 3 0 3 0 0 0 0 0 0 0 0 0 0 0 0 0 0 0 0 0 0 3 3 10 0 0 0 0 10 16 23 32 32 32 29 29
6 3 3 3 3 3 3 3 3 3 0 0 0 0 0 0 0 0 0 0 0 0 0 0 0 0 0 0 0 0 3 0 0 0 0 0 0 0 10 10 13 13 13
3 3 3 3 3 3 3 3 3 3 0 0 0 0 0 0 0 0 0 0 0 0 0 0 0 0 0 0 0 0 0 0 0 0 0 0 0 0 0 0 0 0 0
10 6 6 6 6 6 6 6 3 3 3 0 0 0 0 0 0 0 0 0 0 0 0 0 0 0 0 0 0 0 0 0 0 0 0 0 0 0 0 0 0 0 0
13 10 6 6 10 6 6 3 3 3 3 3 0 0 0 0 0 0 0 0 0 0 0 0 0 0 0 0 0 0 0 0 0 0 0 0 0 0 0 0 0 0 0
10 10 3 6 10 10 6 6 6 3 6 3 3 0 0 0 0 0 0 0 0 0 0 0 0 0 0 0 0 0 0 0 0 0 0 0 0 0 0 0 0 0 0
10 3 6 6 6 6 6 6 6 10 6 6 6 3 0 0 0 0 0 0 0 0 0 0 0 0 0 0 0 0 0 0 0 0 0 0 0 0 0 0 0 0 0
6 6 6 6 6 6 6 6 10 10 6 6 6 3 0 0 0 0 0 0 0 0 0 0 0 0 0 0 0 0 0 0 0 0 0 0 0 0 0 0 0 0 0
10 6 6 6 6 6 6 6 6 6 3 3 6 3 0 0 0 0 0 0 0 0 0 0 0 0 0 0 0 0 0 0 0 0 0 0 0 0 0 0 0 0 0
10 10 10 6 6 6 6 0 3 6 3 3 3 3 3 0 0 0 0 0 0 0 0 0 0 0 0 0 0 0 0 0 0 0 0 0 0 0 0 0 0 0 0
10 10 6 6 6 6 3 0 0 3 3 3 3 3 3 3 0 0 0 0 0 0 0 0 0 0 0 0 0 0 0 0 0 0 0 0 0 0 0 0 0 0 0
3 6 6 6 3 3 3 0 0 0 3 3 3 3 3 3 0 0 0 0 0 0 0 0 0 0 0 0 0 0 0 0 0 0 0 0 0 0 0 0 0 0 0
6 0 3 0 3 3 3 0 0 0 0 3 3 3 3 3 3 0 0 0 0 0 0 0 0 0 0 0 0 0 0 0 0 0 0 0 0 0 0 0 0 0 0
3 3 0 0 0 0 0 0 0 0 3 3 3 3 0 0 3 0 0 0 0 0 0 0 0 0 0 0 0 0 0 0 0 0 0 0 0 0 0 0 0 0 0

GEFSMA_con_cape1000_156.txt.gz
Probability
16 16 13 10 6 3 3 3 3 3 0 3 3 3 6 13 19 32 55 84 87 87 81 68 68 68 68 74 68 71 74 74 74 68 68 55 58 42 39 39 29 23 19
10 6 3 3 3 3 3 6 6 3 3 10 3 3 3 13 19 26 42 81 90 90 84 74 65 65 65 58 74 71 68 74 74 74 61 48 58 52 45 35 13 13 16
0 0 0 3 3 3 3 3 3 6 3 6 6 10 10 13 13 13 26 45 87 87 84 84 84 77 65 61 52 58 65 61 77 74 65 65 52 55 48 42 26 16 23
3 0 0 0 0 0 3 3 6 3 3 3 10 6 6 13 16 10 23 26 39 55 77 90 87 87 61 58 55 65 65 77 84 77 71 58 52 48 45 45 29 26 16
3 0 0 0 0 0 0 3 3 3 3 3 0 0 3 3 10 6 10 19 19 26 45 52 81 87 65 55 65 55 71 77 65 71 68 61 48 45 48 48 35 35 19
0 0 0 0 0 0 0 0 0 0 0 3 0 0 0 0 3 6 6 6 6 6 13 23 48 65 74 81 77 71 65 71 74 61 65 58 58 52 42 39 42 35 26
0 0 0 0 0 0 0 0 0 0 0 0 0 0 0 0 0 0 0 3 6 6 3 6 16 29 29 55 68 71 65 61 77 71 65 61 61 55 45 39 32 19 23
0 0 0 0 0 0 0 0 0 0 0 0 0 0 0 0 0 0 0 0 0 3 10 3 3 10 13 19 16 32 61 65 61 71 77 68 61 55 52 48 29 16 16
0 0 0 0 0 0 0 0 0 0 0 0 0 0 0 0 0 0 0 0 0 0 0 3 0 3 3 10 6 10 42 68 55 58 65 71 71 48 45 42 32 23 6
3 3 0 0 0 0 0 0 0 0 0 0 0 0 0 0 0 0 0 0 0 0 0 3 3 3 3 6 3 0 6 16 48 55 65 71 58 61 48 42 39 32 16
3 3 3 3 0 0 0 0 0 0 0 0 0 0 0 0 0 0 0 0 0 0 0 0 0 0 0 3 3 3 3 6 10 23 52 52 61 61 58 45 39 32 32
3 3 3 3 3 0 0 0 0 0 0 0 0 0 0 0 0 0 0 0 0 0 0 0 0 0 0 3 0 0 0 0 0 0 6 16 29 45 42 45 39 29 26
6 3 3 3 3 3 3 3 0 0 0 0 0 0 0 0 0 0 0 0 0 0 0 0 0 0 0 0 0 0 0 0 0 0 0 0 0 13 26 29 29 19 23
3 3 3 3 3 0 3 3 3 0 0 0 0 0 0 0 0 0 0 0 0 0 0 0 0 0 0 0 0 0 0 0 0 0 0 0 0 0 0 3 6 6 10
3 3 3 3 3 3 3 3 3 3 0 0 0 0 0 0 0 0 0 0 0 0 0 0 0 0 0 0 0 0 0 0 0 0 0 0 0 0 0 0 0 0 0
3 3 3 3 3 3 3 3 3 3 3 0 0 0 0 0 0 0 0 0 0 0 0 0 0 0 0 0 0 0 0 0 0 0 0 0 0 0 0 0 0 0 0
3 3 3 3 3 3 3 3 3 3 3 3 0 0 0 0 0 0 0 0 0 0 0 0 0 0 0 0 0 0 0 0 0 0 0 0 0 0 0 0 0 0 0
3 3 6 6 3 3 3 3 3 3 3 3 3 3 0 0 0 0 0 0 0 0 0 0 0 0 0 0 0 0 0 0 0 0 0 0 0 0 0 0 0 0 0
3 3 3 6 3 3 3 3 3 3 3 3 3 3 3 3 0 0 0 0 0 0 0 0 0 0 0 0 0 0 0 0 0 0 0 0 0 0 0 0 0 0 0
3 3 3 3 3 3 3 3 3 3 3 3 3 3 3 3 3 3 0 0 0 0 0 0 0 0 0 0 0 0 0 0 0 0 0 0 0 0 0 0 0 0 0
10 10 10 6 6 6 6 6 6 6 6 3 3 3 3 3 3 0 0 0 0 0 0 0 0 0 0 0 0 0 0 0 0 0 0 0 0 0 0 0 0 0 0
10 10 10 10 10 6 6 0 0 6 6 6 6 3 3 3 0 0 0 0 0 0 0 0 0 0 0 0 0 0 0 0 0 0 0 0 0 0 0 0 0 0 0
10 10 10 10 10 6 3 0 0 0 3 3 3 3 3 3 0 3 0 0 0 0 0 0 0 0 0 0 0 0 0 0 0 0 0 0 0 0 0 0 0 0 0
6 6 6 6 6 3 3 0 0 0 0 3 3 3 3 3 3 3 3 3 0 0 0 0 0 0 0 0 0 0 0 0 0 0 0 0 0 0 0 0 0 0 0
3 3 0 0 0 0 0 0 0 0 0 0 0 3 3 3 3 0 0 3 3 3 0 0 0 0 0 0 0 0 0 0 0 0 0 0 0 0 0 0 0 0 0
0 0 0 0 0 0 0 0 0 0 0 0 0 0 0 0 0 0 0 0 3 3 3 0 0 0 0 0 0 0 0 0 0 0 0 0 0 0 0 0 0 0 0

GEFSMA_con_cape1000_162.txt.gz
Probability
61 71 77 74 42 42 45 48 45 61 48 42 29 23 16 19 13 23 65 74 74 68 65 68 74 55 58 65 68 65 68 68 74 58 52 45 42 42 32 35 26 16 16
61 61 68 71 48 42 35 35 39 52 45 45 39 32 26 16 26 39 45 71 74 77 68 65 58 65 58 68 71 71 55 61 61 58 48 45 42 35 35 26 19 6 19
71 65 48 58 48 35 52 61 48 42 45 39 39 42 29 29 35 35 26 45 55 65 77 71 65 61 52 48 52 58 58 61 65 65 48 42 42 48 35 23 16 10 16
71 84 55 55 52 48 55 52 42 48 42 52 48 45 35 48 32 32 26 32 39 29 55 71 61 61 52 45 48 58 48 65 68 61 58 52 45 42 42 42 19 26 16
68 65 71 68 71 58 52 45 35 45 48 42 35 52 26 32 42 26 26 16 23 35 45 71 74 77 58 48 55 55 48 61 74 68 58 52 48 48 39 35 32 26 19
71 68 71 77 61 55 52 61 48 58 45 48 6 16 26 29 26 26 26 19 26 19 13 35 65 68 71 71 71 61 58 58 61 61 61 61 55 52 48 39 35 23 26
61 74 58 81 68 61 58 39 55 45 35 39 29 19 19 16 19 35 32 29 26 16 19 26 39 52 65 61 48 68 61 52 68 65 65 68 58 61 42 35 32 23 16
61 55 81 61 61 68 68 65 65 58 35 29 32 32 29 29 48 3 23 29 13 10 16 19 32 45 35 45 42 55 55 52 45 68 68 71 61 61 52 39 35 29 16
61 68 65 65 65 58 65 71 68 61 42 42 29 29 26 23 16 10 19 16 26 26 23 19 26 42 39 39 42 23 45 48 45 45 58 71 77 58 45 39 39 35 29
61 58 61 58 68 61 71 58 52 61 55 45 26 39 16 26 16 13 16 10 16 32 29 10 13 23 32 39 45 16 29 32 35 39 55 58 71 55 35 26 32 35 35
58 61 61 61 68 58 55 52 58 58 48 45 32 32 35 35 13 26 19 16 10 10 16 26 16 19 23 29 48 16 10 6 16 26 48 55 55 58 52 39 32 29 32
52 52 55 58 58 48 45 48 58 52 52 58 55 35 32 35 23 13 10 16 16 10 3 23 10 13 19 16 13 6 3 0 0 0 13 19 32 39 48 39 39 29 26
48 48 42 58 55 61 48 52 45 52 45 52 42 35 32 26 29 26 23 23 13 3 6 3 3 10 10 13 26 3 3 0 0 0 0 0 0 16 19 29 32 32 32
35 39 48 45 48 45 39 55 42 45 52 52 32 42 42 32 32 29 26 23 26 10 3 0 3 10 16 23 3 0 3 0 0 0 0 0 0 0 0 3 10 13 16
42 42 48 45 48 48 48 55 48 48 52 45 39 42 39 29 29 26 26 29 35 13 10 13 6 13 16 26 3 10 13 3 0 0 0 0 0 0 0 0 0 0 0
52 42 42 42 42 45 52 58 45 48 52 48 52 48 45 29 26 26 26 29 32 32 23 10 19 13 23 0 0 10 10 0 0 0 0 0 0 0 0 0 0 0 0
52 45 39 42 39 45 45 55 39 39 32 42 29 29 35 39 32 35 26 35 29 32 26 10 3 10 19 19 10 10 13 19 3 0 0 0 0 0 0 0 0 0 0
48 39 35 39 35 35 42 39 32 26 29 29 29 29 26 23 32 29 39 19 29 29 26 26 19 13 26 23 26 26 10 0 6 0 0 0 0 0 0 0 0 0 0
42 39 45 39 35 29 39 32 26 23 23 26 19 23 19 13 23 29 23 19 23 13 23 19 23 32 16 16 19 16 6 23 3 0 0 0 0 0 0 0 0 0 0
42 39 32 35 32 32 26 23 26 23 23 23 16 19 16 10 13 16 16 23 13 16 23 16 19 16 19 16 19 16 6 16 3 0 0 0 0 0 0 0 0 0 0
29 32 32 29 29 19 19 19 26 19 32 23 19 19 10 6 6 6 6 16 13 13 16 13 13 10 6 10 10 13 10 6 13 3 6 3 0 0 0 0 0 0 0
26 26 26 23 19 13 10 6 6 19 23 23 19 23 16 6 6 3 0 0 3 3 10 13 10 3 6 3 10 3 10 10 10 3 6 0 3 6 6 0 0 0 0
26 26 23 26 26 19 3 3 3 6 13 16 19 23 10 10 6 10 6 0 0 0 0 3 3 6 3 6 3 6 6 6 6 6 6 6 3 3 3 0 0 0 0
26 23 26 23 23 16 0 0 0 3 10 16 16 16 19 16 6 3 6 3 6 3 3 0 3 3 3 3 3 3 3 3 3 3 6 3 6 3 0 0 0 0 0
29 19 19 19 19 13 0 0 0 0 6 6 6 13 16 13 3 0 0 3 0 0 0 0 0 0 0 0 0 3 3 3 3 3 3 3 3 3 3 3 0 0 0
16 19 16 16 16 10 0 0 0 0 3 6 13 13 3 0 0 0 3 3 3 3 0 0 0 0 0 0 0 0 3 3 3 3 3 3 3 3 3 3 0 0 0

GEFSMA_con_cape1000_168.txt.gz
Probability
90 90 97 97 97 97 87 81 87 90 87 65 45 42 42 42 48 48 52 81 81 81 77 61 52 45 52 58 55 58 58 71 65 58 42 42 45 42 29 26 23 16 19
97 90 87 97 100 97 97 100 87 84 81 87 68 58 52 52 71 68 52 68 84 81 77 74 61 58 48 45 55 61 55 65 61 55 48 52 52 45 35 29 26 19 19
94 94 90 87 94 94 94 94 77 84 77 71 68 55 65 68 68 68 68 55 55 74 77 74 77 68 65 58 55 58 55 55 65 61 55 52 58 48 42 32 32 26 23
81 100 94 90 97 97 100 100 97 87 81 71 71 65 74 71 52 65 68 71 55 29 65 81 77 81 65 65 55 71 65 71 74 65 65 55 52 48 35 32 35 26 23
71 87 97 94 90 100 100 65 84 77 81 74 58 65 68 65 68 52 58 52 58 55 35 65 87 84 65 65 65 58 58 65 77 71 58 52 52 52 45 42 42 32 23
77 84 94 94 90 94 90 90 90 81 90 84 35 35 52 61 74 61 55 48 52 55 45 42 65 65 84 77 81 71 68 68 68 65 61 55 55 55 52 48 39 39 39
74 84 87 87 94 100 94 81 87 81 81 81 61 55 48 58 65 71 61 48 42 45 55 61 55 58 32 74 77 84 77 65 71 61 61 58 68 68 58 48 42 39 26
84 65 87 87 94 97 84 84 84 71 71 74 65 45 35 39 68 35 65 65 48 55 45 45 65 74 52 16 13 71 81 77 71 68 65 71 61 65 58 55 45 29 26
77 87 94 84 94 90 81 87 81 71 65 71 65 55 29 16 42 48 61 55 65 65 58 48 55 61 61 58 29 16 68 81 77 61 71 71 68 42 29 32 23 19 19
77 71 81 87 77 81 84 77 77 81 71 58 68 61 52 52 39 19 39 48 58 55 58 39 35 48 58 52 65 32 42 61 68 71 68 65 61 48 29 26 23 29 23
68 68 74 71 74 84 84 81 90 74 74 65 61 52 45 48 35 32 19 29 42 48 55 48 35 45 48 45 55 39 16 26 35 55 61 61 61 58 55 26 16 19 23
61 61 68 65 74 87 81 81 81 71 74 74 68 61 58 48 48 39 23 29 26 35 42 48 45 48 48 42 35 26 16 6 6 10 19 35 52 52 45 29 23 19 23
58 61 55 68 68 77 81 74 77 71 71 61 61 71 61 52 55 48 45 32 26 48 45 52 42 42 39 32 29 16 13 0 0 0 0 0 10 19 26 29 23 23 26
55 61 55 65 68 68 55 71 71 71 71 61 48 58 65 48 45 52 39 35 19 23 32 32 32 35 29 29 23 0 3 0 0 0 0 0 0 0 3 3 3 6 10
55 48 58 68 71 71 68 74 61 61 74 71 55 65 61 55 45 42 48 39 26 13 16 16 32 35 32 32 3 0 13 0 0 0 0 0 0 0 0 0 0 0 0
68 61 55 61 58 58 65 65 58 52 55 61 65 58 55 42 39 42 35 29 39 32 13 19 26 29 29 10 3 6 16 3 0 0 0 0 0 0 0 0 0 0 0
58 61 61 65 61 52 58 58 52 55 45 45 39 39 42 48 45 45 42 26 29 32 10 13 26 26 23 23 10 19 13 10 0 0 0 0 0 0 0 0 0 0 0
58 58 52 52 52 52 58 48 42 42 42 35 32 39 35 29 32 32 29 23 23 23 16 10 19 19 19 23 23 29 13 13 10 0 0 0 0 0 0 0 0 0 0
61 58 58 52 52 48 52 48 42 45 32 32 29 29 32 23 29 19 23 19 19 6 16 10 6 13 16 10 19 16 10 10 3 3 0 0 0 0 0 0 0 0 0
55 55 48 45 52 45 39 42 35 32 29 29 29 29 23 19 19 19 19 19 16 13 10 10 10 10 13 16 13 13 6 13 3 3 3 0 0 0 0 0 0 0 0
45 45 39 35 35 29 16 23 26 19 26 26 23 19 19 13 13 6 6 16 10 6 6 3 6 6 6 10 10 10 3 6 3 3 3 3 0 0 0 0 0 0 0
42 39 32 35 26 19 3 3 6 19 26 26 19 23 19 16 6 3 3 3 3 3 6 10 10 13 3 10 13 3 3 3 0 0 3 3 3 3 0 3 0 0 0
42 42 39 32 26 19 6 3 3 6 16 16 19 19 13 3 0 6 3 3 0 0 0 3 3 10 6 6 6 6 3 3 3 3 3 0 0 3 3 3 0 0 0
35 35 29 26 23 16 3 0 0 0 3 16 16 13 13 13 6 6 3 0 0 3 3 0 0 0 0 6 6 3 6 0 0 0 0 0 0 0 0 0 0 0 0
29 26 19 19 19 13 6 0 0 0 6 6 6 10 10 13 3 0 0 3 3 3 0 0 0 0 0 0 0 0 0 0 0 0 0 0 0 0 0 0 0 0 0
19 19 19 19 16 10 6 0 0 0 6 6 6 3 3 0 0 0 0 0 0 6 0 0 0 0 0 0 0 0 0 0 0 0 0 0 0 0 0 0 0 0 0

GEFSMA_con_cape1000_174.txt.gz
Probability
13 16 19 16 19 13 10 6 0 6 3 0 0 0 3 6 0 10 29 84 90 90 77 61 77 68 71 65 65 68 61 48 48 52 45 52 55 35 29 32 26 23 32
13 3 6 16 16 3 6 3 3 3 0 0 0 3 3 3 3 3 10 71 90 87 84 77 74 77 71 65 65 68 71 61 52 55 45 42 45 42 23 26 23 19 29
10 10 0 0 0 0 3 3 0 0 0 3 0 3 0 0 6 3 10 19 58 90 90 90 84 77 71 71 65 68 71 71 58 58 48 45 39 39 45 39 26 23 29
16 13 6 0 0 0 0 0 3 0 0 0 0 0 0 0 6 6 6 3 3 26 74 84 84 84 71 71 71 68 71 77 74 61 55 42 42 45 48 42 39 35 26
10 6 10 0 3 0 0 0 0 0 0 0 0 0 0 0 0 3 3 3 0 0 6 48 87 87 81 71 71 71 68 68 71 68 65 45 45 52 48 39 32 29 19
13 6 3 3 3 0 0 0 0 0 0 0 0 0 0 0 0 0 0 3 3 0 0 3 26 52 81 81 77 77 74 68 68 65 61 52 52 52 48 39 35 29 23
10 3 6 3 0 0 0 0 0 0 0 0 0 0 0 0 0 0 0 0 0 0 0 0 3 0 10 71 81 87 81 74 74 77 65 55 55 61 52 35 39 32 26
10 6 3 3 0 0 0 0 0 0 0 0 0 0 0 0 0 0 0 0 0 0 0 0 0 0 0 0 6 71 84 81 74 68 65 55 58 61 58 26 19 23 16
13 3 3 0 3 0 0 0 0 0 0 0 0 0 0 0 0 0 0 0 0 0 0 0 0 0 3 0 0 10 61 65 74 71 68 68 58 48 29 16 13 13 13
16 10 3 3 6 3 0 0 3 0 0 0 0 0 0 0 0 0 0 0 0 0 0 0 0 0 0 0 0 0 16 48 71 74 68 71 52 32 23 16 19 19 13
19 16 16 16 10 3 3 3 3 0 0 0 3 0 0 0 0 0 0 0 0 0 0 0 0 0 0 0 0 0 0 10 16 45 58 58 61 52 29 23 19 19 26
19 16 16 16 16 10 3 6 6 6 6 6 3 3 0 0 0 0 0 0 0 0 0 0 0 0 0 0 0 6 10 0 3 3 16 32 42 45 39 29 26 16 13
16 10 16 13 10 10 13 6 3 6 6 6 3 0 0 0 3 3 3 3 0 0 0 0 0 0 0 0 0 6 13 0 0 0 0 0 6 16 26 26 23 29 19
10 13 13 13 16 19 19 6 3 6 6 6 6 3 3 0 3 3 3 3 3 3 0 0 0 0 0 0 0 0 3 0 0 0 0 0 0 0 0 6 6 10 10
16 16 16 10 13 13 13 10 6 6 6 6 3 3 0 3 3 3 3 3 3 3 3 3 0 0 0 0 0 0 0 0 0 0 0 0 0 0 0 0 0 0 0
16 19 16 10 10 6 10 10 10 6 3 3 3 3 3 3 3 3 3 3 3 3 3 3 3 3 0 3 0 0 0 0 0 0 0 0 0 0 0 0 0 0 0
10 6 3 6 10 10 10 10 10 6 6 6 6 3 3 3 3 3 3 3 3 3 3 3 3 3 0 0 0 0 0 0 0 0 0 0 0 0 0 0 0 0 0
6 6 10 10 10 10 10 13 10 10 10 6 6 6 6 6 6 3 3 3 3 3 3 3 3 3 3 0 0 0 0 3 0 0 0 0 0 0 0 0 0 0 0
13 10 10 13 10 13 10 10 6 10 6 6 6 6 3 3 3 3 3 3 3 3 3 3 3 3 3 3 3 3 3 0 0 0 0 0 0 0 0 0 0 0 0
13 16 16 13 13 13 13 10 6 3 3 3 6 6 6 6 3 3 3 3 3 3 3 3 3 3 3 3 3 3 3 0 0 0 0 0 0 0 0 0 0 0 0
16 13 13 13 13 13 6 0 0 0 0 0 3 3 3 3 0 0 0 0 0 0 0 0 0 0 0 0 0 0 0 0 0 0 0 0 0 0 0 0 0 0 0
16 13 13 10 6 6 3 0 0 0 0 0 0 0 0 0 0 0 0 0 0 0 0 0 0 0 0 0 0 0 0 0 0 0 0 0 0 0 0 0 0 0 0
13 10 6 3 3 3 3 0 0 0 0 0 0 0 0 0 0 0 0 0 0 0 0 0 0 0 0 0 0 0 0 0 0 0 0 0 0 0 0 0 0 0 0
6 6 6 6 3 3 0 0 0 0 0 0 0 0 0 0 0 0 0 0 0 0 0 0 0 0 0 0 0 0 0 0 0 0 0 0 0 0 0 0 0 0 0
6 6 3 3 3 3 0 0 0 0 0 0 0 0 0 0 0 0 0 0 0 0 0 0 0 0 0 0 0 0 0 0 0 0 0 0 0 0 0 0 0 0 0
3 6 3 3 3 3 0 0 0 0 0 0 0 0 0 0 0 0 0 0 0 0 0 0 0 0 0 0 0 0 0 0 0 0 0 0 0 0 0 0 0 0 0

GEFSMA_con_cape1000_180.txt.gz
Probability
10 6 10 6 6 6 3 3 3 0 3 3 0 3 3 0 13 16 32 48 77 77 68 48 55 48 55 52 48 48 42 42 42 42 45 42 42 29 29 26 29 29 32
6 0 3 6 6 6 6 6 3 3 3 3 3 3 0 3 6 16 16 45 74 77 68 61 55 55 58 39 39 55 48 39 45 42 42 45 48 39 23 29 26 26 35
0 0 0 3 3 3 3 0 0 0 0 0 6 3 3 6 10 6 16 26 45 74 81 68 71 68 65 52 45 48 58 52 39 45 45 48 42 39 35 35 29 29 39
3 0 0 3 3 3 3 0 0 0 0 0 3 0 0 3 13 10 3 19 23 29 61 84 77 74 68 58 52 58 65 61 52 52 45 35 35 39 35 39 29 29 29
3 0 0 0 0 3 0 0 0 0 0 0 0 0 0 0 3 3 0 10 10 16 19 39 74 84 74 68 68 68 74 74 61 65 52 42 42 29 29 26 23 26 19
3 0 0 0 0 0 0 0 0 0 0 0 0 0 0 0 0 0 0 3 3 3 6 10 26 45 58 71 77 77 74 74 65 52 48 39 29 35 29 19 16 16 13
3 0 0 0 0 0 0 0 0 0 0 0 0 0 0 0 0 0 0 0 3 0 0 0 6 10 13 42 61 71 68 71 68 58 55 48 45 45 32 16 13 10 13
3 3 0 0 0 0 0 0 0 0 0 0 0 0 0 0 0 0 0 0 0 3 3 0 0 3 3 6 6 29 55 61 58 61 61 55 45 42 32 23 19 13 6
0 0 0 0 0 0 0 0 0 0 0 0 0 0 0 0 0 0 0 0 0 0 0 0 0 3 3 3 0 3 32 42 55 55 65 65 52 42 32 23 19 16 10
0 0 0 0 0 0 0 0 0 0 0 0 0 0 0 0 0 0 0 0 0 0 0 0 0 3 6 0 0 0 3 26 35 42 52 55 52 35 32 32 16 13 13
3 3 6 0 0 0 0 0 0 0 0 0 0 0 0 0 0 0 0 0 0 0 0 0 0 0 3 0 0 0 0 3 10 26 39 39 39 45 35 29 29 26 16
6 10 10 6 6 3 0 0 0 0 0 0 3 3 3 3 0 0 0 0 0 3 3 0 0 0 0 0 0 0 0 0 0 0 6 19 32 35 39 32 23 19 19
6 6 10 13 10 6 3 0 0 0 0 6 6 3 3 0 0 0 0 3 0 3 3 3 0 0 0 3 0 0 3 0 0 0 0 0 3 10 16 26 23 19 19
10 6 6 6 10 10 6 0 0 0 3 3 3 3 0 0 0 0 3 3 3 3 3 3 3 3 3 3 0 0 0 0 0 0 0 0 0 0 0 3 6 13 13
10 3 6 3 3 6 6 6 3 3 3 3 3 0 3 0 0 0 0 3 3 6 3 3 3 3 3 3 3 3 3 0 0 0 0 0 0 0 0 0 0 0 0
10 6 6 6 6 6 3 3 3 0 6 0 3 3 3 3 3 0 3 3 3 3 3 3 3 3 3 3 3 3 3 0 0 0 0 0 0 0 0 0 0 0 0
6 3 3 6 3 3 3 0 3 6 3 6 6 6 3 3 3 3 3 3 3 3 3 3 3 3 3 3 3 3 3 3 3 0 0 0 0 0 0 0 0 0 0
3 6 6 6 6 3 6 6 6 6 6 6 6 6 6 6 6 3 3 3 3 3 3 3 3 3 3 3 0 0 0 0 3 0 0 0 0 0 0 0 0 0 0
10 10 10 10 6 3 3 6 6 0 0 3 3 3 3 0 0 0 3 0 0 0 0 0 0 0 0 0 0 0 0 0 0 0 0 0 0 0 0 0 0 0 0
10 10 13 6 6 6 6 6 3 3 0 0 0 0 0 0 0 0 0 0 0 0 0 0 0 0 0 0 0 0 0 0 0 0 0 0 0 0 0 0 0 0 0
10 10 6 6 6 6 6 6 6 6 3 0 0 0 0 0 0 0 0 0 0 0 0 0 0 0 0 0 0 0 0 0 0 0 0 0 0 0 0 0 0 0 0
10 6 6 6 6 6 3 0 0 0 0 0 0 0 0 0 0 0 0 0 0 0 0 0 0 0 0 0 0 0 0 0 0 0 0 0 0 0 0 0 0 0 0
6 6 6 6 6 0 0 0 0 0 0 0 0 0 0 0 0 0 0 0 0 0 0 0 0 0 0 0 0 0 0 0 0 0 0 0 0 0 0 0 0 0 0
6 3 3 3 0 0 0 0 0 0 0 0 0 0 0 0 0 0 0 0 0 0 0 0 0 0 0 0 0 0 0 0 0 0 0 0 0 0 0 0 0 0 0
3 3 0 0 0 0 0 0 0 0 0 0 0 0 0 0 0 0 0 0 0 0 0 0 0 0 0 0 0 0 0 0 0 0 0 0 0 0 0 0 0 0 0
0 0 0 0 0 0 0 0 0 0 0 0 0 0 0 0 0 0 0 0 0 0 0 0 0 0 0 0 0 0 0 0 0 0 0 0 0 0 0 0 0 0 0

GEFSMA_con_cape1000_186.txt.gz
Probability
48 45 68 58 35 42 48 58 42 48 42 32 23 23 23 16 10 16 55 52 58 61 55 42 48 45 39 42 35 32 29 35 35 42 35 32 35 26 26 19 23 19 23
58 48 68 68 58 52 48 55 52 52 42 29 29 29 23 23 26 32 32 58 61 61 68 52 48 45 45 42 42 35 29 35 39 45 52 45 48 39 32 26 26 26 26
65 65 52 61 52 58 55 61 55 52 52 29 35 29 26 42 48 48 42 55 68 61 65 58 58 52 52 45 35 32 42 39 35 39 42 42 42 39 45 39 23 26 29
61 65 48 39 58 42 52 65 48 45 35 39 45 35 42 61 48 45 42 48 55 45 61 65 65 61 58 61 52 48 48 48 48 45 35 29 29 26 29 29 29 35 32
58 55 45 68 52 42 45 42 45 45 45 48 39 39 35 39 45 32 39 32 42 48 55 65 68 74 65 68 65 61 61 48 48 48 35 29 29 26 26 29 26 29 29
61 61 55 58 45 45 55 58 61 74 65 61 13 13 39 32 32 32 32 29 32 29 26 35 55 61 71 71 71 58 55 58 55 48 45 45 39 45 39 26 19 16 19
52 58 45 61 48 48 52 42 42 32 39 48 39 32 23 13 23 45 39 23 26 26 29 42 45 48 55 65 52 65 61 55 58 48 45 45 39 45 35 23 19 16 19
55 35 65 52 48 58 48 52 55 48 42 35 35 32 19 19 32 3 35 32 26 29 35 39 42 58 55 52 32 48 61 61 55 55 48 48 42 45 39 32 23 19 16
55 55 52 55 52 42 48 65 68 65 55 39 39 45 26 23 19 13 13 16 32 39 39 39 42 45 52 58 52 35 45 45 45 48 48 48 42 39 42 35 26 23 19
52 55 55 55 52 45 58 39 42 52 55 39 39 48 29 26 23 23 23 19 26 45 42 23 23 32 45 55 55 23 26 32 32 39 42 42 39 32 32 32 26 26 26
48 45 58 48 58 58 55 58 68 74 65 61 55 42 32 35 23 32 19 19 16 13 19 35 29 29 42 39 45 26 10 13 19 26 29 32 39 35 35 32 26 29 26
55 48 48 58 58 55 58 65 65 65 65 58 52 45 45 39 35 42 32 32 35 19 10 16 26 32 39 29 26 13 10 0 0 0 10 19 23 23 35 32 29 23 26
52 48 39 52 61 58 58 58 61 58 58 58 61 42 39 35 26 32 35 26 19 16 19 19 19 23 16 19 26 6 10 0 0 0 0 0 6 16 13 16 19 19 19
55 52 52 45 55 52 45 61 55 55 55 55 42 55 39 32 35 32 39 39 29 19 26 19 16 16 19 16 16 3 13 3 0 0 0 0 0 0 0 3 6 6 3
52 52 48 48 42 52 48 48 58 52 52 45 42 45 45 39 29 26 32 35 29 19 16 29 23 23 19 19 10 19 23 6 3 0 0 0 0 0 0 0 0 0 0
48 48 48 39 39 42 32 48 45 45 48 48 48 45 48 42 35 39 39 29 35 29 13 23 19 10 19 3 3 6 16 6 0 0 0 0 0 0 0 0 0 0 0
52 42 42 35 35 29 29 29 26 29 35 39 39 39 35 35 35 32 26 26 29 23 13 16 23 10 13 13 16 10 10 16 13 0 0 0 0 0 0 0 0 0 0
42 39 42 39 23 26 32 29 29 29 29 32 32 32 32 29 32 29 26 26 29 23 13 6 6 10 6 3 6 16 0 0 0 0 0 0 0 0 0 0 0 0 0
35 35 32 32 29 26 23 26 29 26 19 16 16 16 19 23 23 23 23 13 16 3 13 6 6 10 10 6 0 0 0 10 0 0 0 0 0 0 0 0 0 0 0
39 35 29 29 29 19 19 23 23 23 23 19 19 19 16 16 13 13 10 10 10 13 10 3 6 6 10 6 3 3 0 3 3 0 0 0 0 0 0 0 0 0 0
29 32 29 23 23 19 16 16 16 16 23 19 16 16 13 10 3 3 6 13 10 10 6 6 6 6 6 10 6 3 0 0 0 0 0 0 0 0 0 0 0 0 0
29 29 26 26 26 13 3 3 3 10 16 16 13 10 10 10 0 0 0 0 0 10 10 10 6 6 6 10 10 3 3 0 0 0 0 0 0 0 0 3 0 0 0
29 29 26 26 19 3 0 0 0 6 6 13 10 10 10 6 6 10 0 0 0 0 0 3 6 6 10 10 10 6 6 6 3 3 3 0 0 0 0 0 0 0 0
26 26 19 16 13 3 0 0 0 0 6 10 10 10 10 10 6 6 10 10 6 6 3 0 0 6 10 6 10 10 3 3 0 0 0 0 0 0 0 0 0 0 0
23 23 13 13 13 3 0 0 0 0 3 3 3 3 6 3 3 3 3 3 3 10 3 0 0 0 0 0 0 3 0 0 0 0 0 0 0 0 0 0 0 0 0
19 13 10 10 10 3 0 0 0 0 3 3 3 3 3 3 0 0 3 3 3 3 3 0 0 0 0 0 0 0 0 0 0 0 0 0 0 0 0 0 0 0 0